Time,TemperatureF,DewpointF,PressureIn,WindDirection,WindDirectionDegrees,WindSpeedMPH,WindSpeedGustMPH,Humidity,HourlyPrecipIn,Conditions,Clouds,dailyrainin,SoftwareType,DateUTC
2013-06-07 00:00:00,61.9,55.0,29.84,ENE,64,0.0,3.0,78,0.00,,---,0.00,VWS V14.01,2013-06-07 04:00:00,
2013-06-07 00:01:00,61.9,55.0,29.84,NE,49,1.0,1.0,78,0.00,,---,0.00,VWS V14.01,2013-06-07 04:01:00,
2013-06-07 00:02:00,61.9,55.0,29.84,NNW,343,0.0,3.0,78,0.00,,---,0.00,VWS V14.01,2013-06-07 04:02:00,
2013-06-07 00:07:00,61.8,54.9,29.84,NNW,340,0.0,3.0,78,0.00,,---,0.00,VWS V14.01,2013-06-07 04:07:00,
2013-06-07 00:12:00,61.7,54.8,29.84,NNW,338,0.0,3.0,78,0.00,,---,0.00,VWS V14.01,2013-06-07 04:12:00,
2013-06-07 00:17:00,61.6,54.7,29.84,North,354,0.0,3.0,78,0.00,,---,0.00,VWS V14.01,2013-06-07 04:17:00,
2013-06-07 00:22:00,61.4,54.8,29.84,North,352,0.0,3.0,79,0.00,,---,0.00,VWS V14.01,2013-06-07 04:22:00,
2013-06-07 00:27:00,61.2,54.6,29.84,South,170,0.0,3.0,79,0.00,,---,0.00,VWS V14.01,2013-06-07 04:27:00,
2013-06-07 00:30:00,61.2,54.6,29.84,South,170,0.0,3.0,79,0.00,,---,0.00,VWS V14.01,2013-06-07 04:30:00,
2013-06-07 00:32:00,61.1,54.5,29.84,South,170,0.0,0.0,79,0.00,,---,0.00,VWS V14.01,2013-06-07 04:32:00,
2013-06-07 00:37:00,61.1,54.5,29.84,WSW,256,0.0,1.0,79,0.00,,---,0.00,VWS V14.01,2013-06-07 04:37:00,
2013-06-07 00:42:00,61.1,54.5,29.85,NE,44,0.0,3.0,79,0.00,,---,0.00,VWS V14.01,2013-06-07 04:42:00,
2013-06-07 00:47:00,61.1,54.5,29.85,NNW,329,0.0,3.0,79,0.00,,---,0.00,VWS V14.01,2013-06-07 04:47:00,
2013-06-07 00:52:00,61.1,54.5,29.85,North,4,0.0,3.0,79,0.00,,---,0.00,VWS V14.01,2013-06-07 04:52:00,
2013-06-07 00:57:00,61.0,54.5,29.85,North,360,0.0,3.0,79,0.00,,---,0.00,VWS V14.01,2013-06-07 04:57:00,
2013-06-07 01:00:00,60.9,54.3,29.84,North,360,0.0,3.0,79,0.00,,---,0.00,VWS V14.01,2013-06-07 05:00:00,
2013-06-07 01:02:00,60.9,54.7,29.85,North,1,0.0,1.0,80,0.00,,---,0.00,VWS V14.01,2013-06-07 05:02:00,
2013-06-07 01:07:00,60.7,54.5,29.85,NNE,27,0.0,1.0,80,0.00,,---,0.00,VWS V14.01,2013-06-07 05:07:00,
2013-06-07 01:12:00,60.5,54.7,29.85,NNE,27,0.0,1.0,81,0.00,,---,0.00,VWS V14.01,2013-06-07 05:12:00,
2013-06-07 01:17:00,60.4,54.9,29.85,SSE,154,0.0,1.0,82,0.00,,---,0.00,VWS V14.01,2013-06-07 05:17:00,
2013-06-07 01:22:00,60.4,54.9,29.85,SE,138,1.0,4.0,82,0.00,,---,0.00,VWS V14.01,2013-06-07 05:22:00,
2013-06-07 01:27:00,60.4,54.9,29.85,SE,138,0.0,4.0,82,0.00,,---,0.00,VWS V14.01,2013-06-07 05:27:00,
2013-06-07 01:30:00,60.4,55.2,29.85,SE,129,0.0,4.0,83,0.00,,---,0.00,VWS V14.01,2013-06-07 05:30:00,
2013-06-07 01:32:00,60.3,54.8,29.85,SE,130,0.0,0.0,82,0.00,,---,0.00,VWS V14.01,2013-06-07 05:32:00,
2013-06-07 01:37:00,60.3,55.1,29.84,SSE,150,0.0,2.0,83,0.00,,---,0.00,VWS V14.01,2013-06-07 05:37:00,
2013-06-07 01:42:00,60.3,55.1,29.84,SSE,153,0.0,2.0,83,0.00,,---,0.00,VWS V14.01,2013-06-07 05:42:00,
2013-06-07 01:47:00,60.2,55.0,29.84,SSW,195,1.0,2.0,83,0.00,,---,0.00,VWS V14.01,2013-06-07 05:47:00,
2013-06-07 01:52:00,60.1,55.3,29.84,SE,140,0.0,4.0,84,0.00,,---,0.00,VWS V14.01,2013-06-07 05:52:00,
2013-06-07 01:57:00,60.0,54.8,29.84,South,187,0.0,4.0,83,0.00,,---,0.00,VWS V14.01,2013-06-07 05:57:00,
2013-06-07 02:00:00,60.0,55.2,29.84,SE,128,0.0,4.0,84,0.00,,---,0.00,VWS V14.01,2013-06-07 06:00:00,
2013-06-07 02:02:00,59.9,55.1,29.84,SE,128,0.0,0.0,84,0.00,,---,0.00,VWS V14.01,2013-06-07 06:02:00,
2013-06-07 02:07:00,59.9,54.7,29.85,East,89,0.0,6.0,83,0.00,,---,0.00,VWS V14.01,2013-06-07 06:07:00,
2013-06-07 02:12:00,59.9,54.7,29.85,SSW,210,0.0,6.0,83,0.00,,---,0.00,VWS V14.01,2013-06-07 06:12:00,
2013-06-07 02:17:00,59.9,54.7,29.85,ESE,121,0.0,6.0,83,0.00,,---,0.00,VWS V14.01,2013-06-07 06:17:00,
2013-06-07 02:22:00,59.9,55.1,29.85,South,172,0.0,6.0,84,0.00,,---,0.00,VWS V14.01,2013-06-07 06:22:00,
2013-06-07 02:27:00,59.8,54.6,29.84,ENE,63,2.0,6.0,83,0.00,,---,0.00,VWS V14.01,2013-06-07 06:27:00,
2013-06-07 02:30:00,59.8,54.6,29.85,NNE,20,0.0,6.0,83,0.00,,---,0.00,VWS V14.01,2013-06-07 06:30:00,
2013-06-07 02:32:00,59.7,54.5,29.84,North,350,0.0,1.0,83,0.00,,---,0.00,VWS V14.01,2013-06-07 06:32:00,
2013-06-07 02:37:00,59.6,54.4,29.85,SSE,164,0.0,1.0,83,0.00,,---,0.00,VWS V14.01,2013-06-07 06:37:00,
2013-06-07 02:42:00,59.5,54.3,29.85,SSE,164,0.0,1.0,83,0.00,,---,0.00,VWS V14.01,2013-06-07 06:42:00,
2013-06-07 02:47:00,59.5,54.3,29.85,South,173,0.0,1.0,83,0.00,,---,0.00,VWS V14.01,2013-06-07 06:47:00,
2013-06-07 02:52:00,59.4,54.2,29.85,South,173,0.0,1.0,83,0.00,,---,0.00,VWS V14.01,2013-06-07 06:52:00,
2013-06-07 02:57:00,59.3,54.5,29.84,South,173,0.0,1.0,84,0.00,,---,0.00,VWS V14.01,2013-06-07 06:57:00,
2013-06-07 03:00:00,59.3,54.5,29.85,South,173,0.0,1.0,84,0.00,,---,0.00,VWS V14.01,2013-06-07 07:00:00,
2013-06-07 03:02:00,59.2,54.4,29.84,South,173,0.0,0.0,84,0.00,,---,0.00,VWS V14.01,2013-06-07 07:02:00,
2013-06-07 03:07:00,59.1,54.3,29.84,NW,326,0.0,2.0,84,0.00,,---,0.00,VWS V14.01,2013-06-07 07:07:00,
2013-06-07 03:12:00,59.0,54.2,29.84,SE,126,0.0,2.0,84,0.00,,---,0.00,VWS V14.01,2013-06-07 07:12:00,
2013-06-07 03:17:00,59.0,54.2,29.84,SW,214,0.0,3.0,84,0.00,,---,0.00,VWS V14.01,2013-06-07 07:17:00,
2013-06-07 03:22:00,58.9,54.1,29.84,SE,138,0.0,3.0,84,0.00,,---,0.00,VWS V14.01,2013-06-07 07:22:00,
2013-06-07 03:27:00,58.8,54.0,29.84,SE,137,0.0,3.0,84,0.00,,---,0.00,VWS V14.01,2013-06-07 07:27:00,
2013-06-07 03:30:00,58.7,54.2,29.84,SE,127,0.0,3.0,85,0.00,,---,0.00,VWS V14.01,2013-06-07 07:30:00,
2013-06-07 03:32:00,58.6,53.8,29.84,SW,219,0.0,1.0,84,0.00,,---,0.00,VWS V14.01,2013-06-07 07:32:00,
2013-06-07 03:37:00,58.4,53.6,29.84,SSW,194,0.0,1.0,84,0.00,,---,0.00,VWS V14.01,2013-06-07 07:37:00,
2013-06-07 03:42:00,57.9,53.4,29.83,SSW,194,0.0,1.0,85,0.00,,---,0.00,VWS V14.01,2013-06-07 07:42:00,
2013-06-07 03:47:00,57.3,52.8,29.83,SSW,194,0.0,1.0,85,0.00,,---,0.00,VWS V14.01,2013-06-07 07:47:00,
2013-06-07 03:52:00,56.7,52.9,29.83,SSW,194,0.0,1.0,87,0.00,,---,0.00,VWS V14.01,2013-06-07 07:52:00,
2013-06-07 03:57:00,56.3,52.8,29.83,SSW,194,0.0,1.0,88,0.00,,---,0.00,VWS V14.01,2013-06-07 07:57:00,
2013-06-07 04:00:00,56.2,53.0,29.83,SSW,194,0.0,1.0,89,0.00,,---,0.00,VWS V14.01,2013-06-07 08:00:00,
2013-06-07 04:02:00,56.1,52.9,29.83,SSW,194,0.0,0.0,89,0.00,,---,0.00,VWS V14.01,2013-06-07 08:02:00,
2013-06-07 04:07:00,55.9,52.7,29.83,SSW,194,0.0,0.0,89,0.00,,---,0.00,VWS V14.01,2013-06-07 08:07:00,
2013-06-07 04:13:00,55.5,52.6,29.84,SSW,194,0.0,0.0,90,0.00,,---,0.00,VWS V14.01,2013-06-07 08:13:00,
2013-06-07 04:18:00,55.2,52.3,29.83,SSW,194,0.0,0.0,90,0.00,,---,0.00,VWS V14.01,2013-06-07 08:18:00,
2013-06-07 04:23:00,54.9,52.3,29.83,SSW,194,0.0,0.0,91,0.00,,---,0.00,VWS V14.01,2013-06-07 08:23:00,
2013-06-07 04:28:00,54.5,51.9,29.83,SSW,195,0.0,0.0,91,0.00,,---,0.00,VWS V14.01,2013-06-07 08:28:00,
2013-06-07 04:30:00,54.4,52.1,29.83,SSW,194,0.0,0.0,92,0.00,,---,0.00,VWS V14.01,2013-06-07 08:30:00,
2013-06-07 04:33:00,54.3,52.0,29.83,SSW,194,0.0,0.0,92,0.00,,---,0.00,VWS V14.01,2013-06-07 08:33:00,
2013-06-07 04:38:00,54.0,51.7,29.84,SSW,194,0.0,0.0,92,0.00,,---,0.00,VWS V14.01,2013-06-07 08:38:00,
2013-06-07 04:43:00,53.7,51.7,29.84,SSW,194,0.0,0.0,93,0.00,,---,0.00,VWS V14.01,2013-06-07 08:43:00,
2013-06-07 04:48:00,53.8,52.1,29.84,SSW,194,0.0,0.0,94,0.00,,---,0.00,VWS V14.01,2013-06-07 08:48:00,
2013-06-07 04:53:00,53.8,52.1,29.84,SSW,194,0.0,0.0,94,0.00,,---,0.00,VWS V14.01,2013-06-07 08:53:00,
2013-06-07 04:58:00,53.6,51.9,29.84,SSW,194,0.0,0.0,94,0.00,,---,0.00,VWS V14.01,2013-06-07 08:58:00,
2013-06-07 05:00:00,53.5,51.8,29.84,SSW,194,0.0,0.0,94,0.00,,---,0.00,VWS V14.01,2013-06-07 09:00:00,
2013-06-07 05:03:00,53.3,51.6,29.84,SSW,194,0.0,0.0,94,0.00,,---,0.00,VWS V14.01,2013-06-07 09:03:00,
2013-06-07 05:08:00,53.3,51.6,29.84,SSW,194,0.0,0.0,94,0.00,,---,0.00,VWS V14.01,2013-06-07 09:08:00,
2013-06-07 05:13:00,53.3,51.6,29.84,SSW,194,0.0,0.0,94,0.00,,---,0.00,VWS V14.01,2013-06-07 09:13:00,
2013-06-07 05:18:00,53.3,51.9,29.84,SSW,194,0.0,0.0,95,0.00,,---,0.00,VWS V14.01,2013-06-07 09:18:00,
2013-06-07 05:23:00,53.5,52.1,29.84,SSW,194,0.0,0.0,95,0.00,,---,0.00,VWS V14.01,2013-06-07 09:23:00,
2013-06-07 05:28:00,53.5,52.1,29.84,SSW,194,0.0,0.0,95,0.00,,---,0.00,VWS V14.01,2013-06-07 09:28:00,
2013-06-07 05:30:00,53.6,52.2,29.84,SSW,194,0.0,0.0,95,0.00,,---,0.00,VWS V14.01,2013-06-07 09:30:00,
2013-06-07 05:33:00,53.6,52.2,29.84,SSW,194,0.0,0.0,95,0.00,,---,0.00,VWS V14.01,2013-06-07 09:33:00,
2013-06-07 05:38:00,53.9,52.5,29.84,NNW,340,1.0,2.0,95,0.00,,---,0.00,VWS V14.01,2013-06-07 09:38:00,
2013-06-07 05:43:00,54.2,52.8,29.84,NNW,331,3.0,3.0,95,0.00,,---,0.00,VWS V14.01,2013-06-07 09:43:00,
2013-06-07 05:48:00,54.5,53.1,29.84,NNW,343,1.0,3.0,95,0.00,,---,0.00,VWS V14.01,2013-06-07 09:48:00,
2013-06-07 05:53:00,54.6,53.2,29.85,North,5,2.0,3.0,95,0.00,,---,0.00,VWS V14.01,2013-06-07 09:53:00,
2013-06-07 05:58:00,54.7,53.0,29.85,NNE,14,1.0,4.0,94,0.00,,---,0.00,VWS V14.01,2013-06-07 09:58:00,
2013-06-07 06:00:00,54.7,53.0,29.85,NNW,344,1.0,4.0,94,0.00,,---,0.00,VWS V14.01,2013-06-07 10:00:00,
2013-06-07 06:03:00,54.6,52.6,29.85,NNW,348,0.0,2.0,93,0.00,,---,0.00,VWS V14.01,2013-06-07 10:03:00,
2013-06-07 06:08:00,54.5,52.5,29.85,NNW,343,0.0,2.0,93,0.00,,---,0.00,VWS V14.01,2013-06-07 10:08:00,
2013-06-07 06:13:00,54.3,52.3,29.85,North,356,1.0,2.0,93,0.00,,---,0.00,VWS V14.01,2013-06-07 10:13:00,
2013-06-07 06:18:00,54.3,52.3,29.85,NNW,335,1.0,3.0,93,0.00,,---,0.00,VWS V14.01,2013-06-07 10:18:00,
2013-06-07 06:23:00,54.3,52.3,29.85,NNW,347,2.0,3.0,93,0.00,,---,0.00,VWS V14.01,2013-06-07 10:23:00,
2013-06-07 06:28:00,54.3,52.3,29.85,NNW,346,1.0,3.0,93,0.00,,---,0.00,VWS V14.01,2013-06-07 10:28:00,
2013-06-07 06:30:00,54.3,52.3,29.85,NNW,344,0.0,3.0,93,0.00,,---,0.00,VWS V14.01,2013-06-07 10:30:00,
2013-06-07 06:33:00,54.3,52.3,29.85,NNW,344,0.0,0.0,93,0.00,,---,0.00,VWS V14.01,2013-06-07 10:33:00,
2013-06-07 06:38:00,54.2,52.2,29.85,NNW,345,0.0,1.0,93,0.00,,---,0.00,VWS V14.01,2013-06-07 10:38:00,
2013-06-07 06:43:00,54.2,52.2,29.85,NNE,27,0.0,1.0,93,0.00,,---,0.00,VWS V14.01,2013-06-07 10:43:00,
2013-06-07 06:48:00,54.2,52.2,29.85,NNE,27,0.0,1.0,93,0.00,,---,0.00,VWS V14.01,2013-06-07 10:48:00,
2013-06-07 06:53:00,54.0,52.0,29.85,NNE,27,0.0,1.0,93,0.00,,---,0.00,VWS V14.01,2013-06-07 10:53:00,
2013-06-07 06:58:00,54.1,52.1,29.85,North,354,0.0,1.0,93,0.00,,---,0.00,VWS V14.01,2013-06-07 10:58:00,
2013-06-07 07:00:00,54.1,52.1,29.85,North,354,0.0,1.0,93,0.00,,---,0.00,VWS V14.01,2013-06-07 11:00:00,
2013-06-07 07:03:00,54.2,52.2,29.85,North,352,0.0,0.0,93,0.00,,---,0.00,VWS V14.01,2013-06-07 11:03:00,
2013-06-07 07:08:00,54.3,52.3,29.85,North,350,0.0,2.0,93,0.00,,---,0.00,VWS V14.01,2013-06-07 11:08:00,
2013-06-07 07:13:00,54.5,52.5,29.85,North,4,1.0,4.0,93,0.00,,---,0.00,VWS V14.01,2013-06-07 11:13:00,
2013-06-07 07:18:00,54.6,52.0,29.85,North,354,1.0,4.0,91,0.00,,---,0.00,VWS V14.01,2013-06-07 11:18:00,
2013-06-07 07:23:00,54.8,52.2,29.85,NNW,335,1.0,4.0,91,0.00,,---,0.00,VWS V14.01,2013-06-07 11:23:00,
2013-06-07 07:28:00,55.0,52.1,29.85,NW,323,2.0,4.0,90,0.00,,---,0.00,VWS V14.01,2013-06-07 11:28:00,
2013-06-07 07:30:00,55.1,52.2,29.85,NNW,340,1.0,4.0,90,0.00,,---,0.00,VWS V14.01,2013-06-07 11:30:00,
2013-06-07 07:33:00,55.2,52.0,29.85,North,359,2.0,4.0,89,0.00,,---,0.00,VWS V14.01,2013-06-07 11:33:00,
2013-06-07 07:38:00,55.3,51.8,29.85,NNW,330,2.0,5.0,88,0.00,,---,0.00,VWS V14.01,2013-06-07 11:38:00,
2013-06-07 07:43:00,55.5,52.0,29.85,NNW,339,1.0,5.0,88,0.00,,---,0.00,VWS V14.01,2013-06-07 11:43:00,
2013-06-07 07:48:00,55.7,52.2,29.85,NW,314,2.0,5.0,88,0.00,,---,0.00,VWS V14.01,2013-06-07 11:48:00,
2013-06-07 07:53:00,55.9,51.8,29.86,NW,316,2.0,6.0,86,0.00,,---,0.00,VWS V14.01,2013-06-07 11:53:00,
2013-06-07 07:58:00,56.1,51.7,29.86,NNW,343,4.0,6.0,85,0.00,,---,0.00,VWS V14.01,2013-06-07 11:58:00,
2013-06-07 08:00:00,56.2,51.8,29.86,NNW,333,3.0,6.0,85,0.00,,---,0.00,VWS V14.01,2013-06-07 12:00:00,
2013-06-07 08:03:00,56.3,51.9,29.86,North,352,1.0,4.0,85,0.00,,---,0.00,VWS V14.01,2013-06-07 12:03:00,
2013-06-07 08:09:00,56.5,51.7,29.86,East,97,1.0,5.0,84,0.00,,---,0.00,VWS V14.01,2013-06-07 12:09:00,
2013-06-07 08:14:00,56.8,51.7,29.86,NW,309,2.0,5.0,83,0.00,,---,0.00,VWS V14.01,2013-06-07 12:14:00,
2013-06-07 08:19:00,57.1,52.0,29.86,NW,307,2.0,5.0,83,0.00,,---,0.00,VWS V14.01,2013-06-07 12:19:00,
2013-06-07 08:24:00,57.4,52.0,29.86,ENE,60,2.0,5.0,82,0.00,,---,0.00,VWS V14.01,2013-06-07 12:24:00,
2013-06-07 08:29:00,57.6,52.2,29.86,North,356,3.0,5.0,82,0.00,,---,0.00,VWS V14.01,2013-06-07 12:29:00,
2013-06-07 08:30:00,57.6,51.8,29.86,North,5,3.0,5.0,81,0.00,,---,0.00,VWS V14.01,2013-06-07 12:30:00,
2013-06-07 08:34:00,57.9,52.1,29.86,North,1,2.0,5.0,81,0.00,,---,0.00,VWS V14.01,2013-06-07 12:34:00,
2013-06-07 08:39:00,58.3,52.5,29.86,NNW,337,1.0,6.0,81,0.00,,---,0.00,VWS V14.01,2013-06-07 12:39:00,
2013-06-07 08:44:00,58.7,52.2,29.86,West,278,0.0,6.0,79,0.00,,---,0.00,VWS V14.01,2013-06-07 12:44:00,
2013-06-07 08:49:00,59.1,52.9,29.86,SSW,194,0.0,6.0,80,0.00,,---,0.00,VWS V14.01,2013-06-07 12:49:00,
2013-06-07 08:54:00,59.7,52.8,29.86,NE,50,2.0,6.0,78,0.00,,---,0.00,VWS V14.01,2013-06-07 12:54:00,
2013-06-07 08:59:00,59.6,52.4,29.86,NW,314,1.0,6.0,77,0.00,,---,0.00,VWS V14.01,2013-06-07 12:59:00,
2013-06-07 09:00:00,59.7,52.5,29.86,NE,36,0.0,6.0,77,0.00,,---,0.00,VWS V14.01,2013-06-07 13:00:00,
2013-06-07 09:04:00,59.9,52.7,29.86,North,358,4.0,4.0,77,0.00,,---,0.00,VWS V14.01,2013-06-07 13:04:00,
2013-06-07 09:09:00,59.7,52.5,29.86,ENE,67,0.0,5.0,77,0.00,,---,0.00,VWS V14.01,2013-06-07 13:09:00,
2013-06-07 09:14:00,59.6,53.1,29.86,NNE,30,0.0,7.0,79,0.00,,---,0.00,VWS V14.01,2013-06-07 13:14:00,
2013-06-07 09:19:00,60.0,52.4,29.87,NNW,348,2.0,7.0,76,0.00,,---,0.00,VWS V14.01,2013-06-07 13:19:00,
2013-06-07 09:24:00,60.1,53.6,29.87,NW,320,2.0,7.0,79,0.00,,---,0.00,VWS V14.01,2013-06-07 13:24:00,
2013-06-07 09:29:00,60.2,53.0,29.86,NW,325,1.0,7.0,77,0.00,,---,0.00,VWS V14.01,2013-06-07 13:29:00,
2013-06-07 09:30:00,60.2,53.0,29.86,NW,314,3.0,7.0,77,0.00,,---,0.00,VWS V14.01,2013-06-07 13:30:00,
2013-06-07 09:34:00,60.4,53.2,29.87,NNW,335,2.0,4.0,77,0.00,,---,0.00,VWS V14.01,2013-06-07 13:34:00,
2013-06-07 09:39:00,60.3,52.7,29.86,NW,307,2.0,6.0,76,0.00,,---,0.00,VWS V14.01,2013-06-07 13:39:00,
2013-06-07 09:44:00,60.6,53.4,29.86,North,354,0.0,6.0,77,0.00,,---,0.00,VWS V14.01,2013-06-07 13:44:00,
2013-06-07 09:49:00,61.2,53.2,29.86,NNE,15,1.0,6.0,75,0.00,,---,0.00,VWS V14.01,2013-06-07 13:49:00,
2013-06-07 09:54:00,61.8,53.8,29.86,NE,39,2.0,6.0,75,0.00,,---,0.00,VWS V14.01,2013-06-07 13:54:00,
2013-06-07 09:59:00,61.8,53.1,29.87,NE,53,0.0,6.0,73,0.00,,---,0.00,VWS V14.01,2013-06-07 13:59:00,
2013-06-07 10:00:00,61.8,53.8,29.87,ENE,65,0.0,6.0,75,0.00,,---,0.00,VWS V14.01,2013-06-07 14:00:00,
2013-06-07 10:04:00,61.8,52.7,29.86,NNE,20,3.0,4.0,72,0.00,,---,0.00,VWS V14.01,2013-06-07 14:04:00,
2013-06-07 10:09:00,61.5,53.2,29.86,NNE,19,1.0,6.0,74,0.00,,---,0.00,VWS V14.01,2013-06-07 14:09:00,
2013-06-07 10:14:00,61.7,53.7,29.86,NNE,30,3.0,6.0,75,0.00,,---,0.00,VWS V14.01,2013-06-07 14:14:00,
2013-06-07 10:19:00,61.8,53.1,29.86,NW,309,3.0,8.0,73,0.00,,---,0.00,VWS V14.01,2013-06-07 14:19:00,
2013-06-07 10:24:00,61.8,52.7,29.86,NNW,346,5.0,8.0,72,0.00,,---,0.00,VWS V14.01,2013-06-07 14:24:00,
2013-06-07 10:29:00,61.9,52.8,29.86,NW,319,2.0,8.0,72,0.00,,---,0.00,VWS V14.01,2013-06-07 14:29:00,
2013-06-07 10:30:00,61.9,52.4,29.86,NW,308,0.0,8.0,71,0.00,,---,0.00,VWS V14.01,2013-06-07 14:30:00,
2013-06-07 10:34:00,62.3,53.2,29.86,NW,322,1.0,6.0,72,0.00,,---,0.00,VWS V14.01,2013-06-07 14:34:00,
2013-06-07 10:39:00,62.8,53.3,29.85,North,356,3.0,7.0,71,0.00,,---,0.00,VWS V14.01,2013-06-07 14:39:00,
2013-06-07 10:44:00,63.2,53.7,29.85,NW,305,1.0,7.0,71,0.00,,---,0.00,VWS V14.01,2013-06-07 14:44:00,
2013-06-07 10:49:00,63.5,53.9,29.85,NNE,18,4.0,7.0,71,0.00,,---,0.00,VWS V14.01,2013-06-07 14:49:00,
2013-06-07 10:54:00,63.9,53.1,29.85,NNW,336,4.0,8.0,68,0.00,,---,0.00,VWS V14.01,2013-06-07 14:54:00,
2013-06-07 10:59:00,63.9,53.5,29.85,NNE,14,6.0,9.0,69,0.00,,---,0.00,VWS V14.01,2013-06-07 14:59:00,
2013-06-07 11:00:00,63.9,53.5,29.85,NNW,339,3.0,9.0,69,0.00,,---,0.00,VWS V14.01,2013-06-07 15:00:00,
2013-06-07 11:04:00,63.8,53.5,29.85,North,356,7.0,9.0,69,0.00,,---,0.00,VWS V14.01,2013-06-07 15:04:00,
2013-06-07 11:09:00,63.8,53.8,29.85,North,352,6.0,9.0,70,0.00,,---,0.00,VWS V14.01,2013-06-07 15:09:00,
2013-06-07 11:14:00,63.9,53.5,29.85,NNW,339,3.0,9.0,69,0.00,,---,0.00,VWS V14.01,2013-06-07 15:14:00,
2013-06-07 11:20:00,64.1,54.5,29.85,NNW,338,4.0,9.0,71,0.00,,---,0.00,VWS V14.01,2013-06-07 15:20:00,
2013-06-07 11:25:00,64.8,54.4,29.85,NNW,329,3.0,9.0,69,0.00,,---,0.00,VWS V14.01,2013-06-07 15:25:00,
2013-06-07 11:30:00,65.1,54.7,29.85,NW,316,5.0,9.0,69,0.00,,---,0.00,VWS V14.01,2013-06-07 15:30:00,
2013-06-07 11:35:00,65.0,53.4,29.85,NE,51,2.0,9.0,66,0.00,,---,0.00,VWS V14.01,2013-06-07 15:35:00,
2013-06-07 11:40:00,64.8,53.6,29.85,NE,34,3.0,9.0,67,0.00,,---,0.00,VWS V14.01,2013-06-07 15:40:00,
2013-06-07 11:45:00,65.2,54.8,29.85,NE,43,3.0,11.0,69,0.00,,---,0.00,VWS V14.01,2013-06-07 15:45:00,
2013-06-07 11:50:00,65.0,53.8,29.85,NNE,15,6.0,11.0,67,0.00,,---,0.00,VWS V14.01,2013-06-07 15:50:00,
2013-06-07 11:55:00,65.0,54.2,29.86,North,4,5.0,11.0,68,0.00,,---,0.00,VWS V14.01,2013-06-07 15:55:00,
2013-06-07 12:00:00,65.3,54.9,29.86,NNE,18,7.0,11.0,69,0.00,,---,0.00,VWS V14.01,2013-06-07 16:00:00,
2013-06-07 12:05:00,65.5,54.3,29.85,NW,316,3.0,9.0,67,0.00,,---,0.00,VWS V14.01,2013-06-07 16:05:00,
2013-06-07 12:10:00,65.8,55.0,29.85,NNE,23,4.0,9.0,68,0.00,,---,0.00,VWS V14.01,2013-06-07 16:10:00,
2013-06-07 12:15:00,66.2,54.9,29.86,North,352,5.0,9.0,67,0.00,,---,0.00,VWS V14.01,2013-06-07 16:15:00,
2013-06-07 12:20:00,66.5,54.8,29.85,North,360,7.0,9.0,66,0.00,,---,0.00,VWS V14.01,2013-06-07 16:20:00,
2013-06-07 12:25:00,66.5,55.2,29.85,NNE,12,7.0,10.0,67,0.00,,---,0.00,VWS V14.01,2013-06-07 16:25:00,
2013-06-07 12:30:00,66.6,56.1,29.85,NE,41,4.0,10.0,69,0.00,,---,0.00,VWS V14.01,2013-06-07 16:30:00,
2013-06-07 12:35:00,67.1,55.0,29.85,NE,40,3.0,8.0,65,0.00,,---,0.00,VWS V14.01,2013-06-07 16:35:00,
2013-06-07 12:40:00,66.9,54.8,29.85,North,358,5.0,10.0,65,0.00,,---,0.00,VWS V14.01,2013-06-07 16:40:00,
2013-06-07 12:45:00,66.9,53.9,29.85,NNW,346,4.0,10.0,63,0.00,,---,0.00,VWS V14.01,2013-06-07 16:45:00,
2013-06-07 12:50:00,67.5,54.9,29.85,NNW,340,7.0,10.0,64,0.00,,---,0.00,VWS V14.01,2013-06-07 16:50:00,
2013-06-07 12:55:00,67.5,55.8,29.85,NE,36,5.0,10.0,66,0.00,,---,0.00,VWS V14.01,2013-06-07 16:55:00,
2013-06-07 13:00:00,67.3,54.7,29.85,NW,319,3.0,10.0,64,0.00,,---,0.00,VWS V14.01,2013-06-07 17:00:00,
2013-06-07 13:05:00,67.3,56.0,29.85,NNW,339,5.0,10.0,67,0.00,,---,0.00,VWS V14.01,2013-06-07 17:05:00,
2013-06-07 13:10:00,67.6,55.8,29.84,ESE,105,4.0,10.0,66,0.00,,---,0.00,VWS V14.01,2013-06-07 17:10:00,
2013-06-07 13:15:00,68.0,55.8,29.84,NE,37,3.0,10.0,65,0.00,,---,0.00,VWS V14.01,2013-06-07 17:15:00,
2013-06-07 13:20:00,68.1,55.9,29.84,NNE,18,3.0,10.0,65,0.00,,---,0.00,VWS V14.01,2013-06-07 17:20:00,
2013-06-07 13:25:00,68.8,54.8,29.84,ENE,66,3.0,10.0,61,0.00,,---,0.00,VWS V14.01,2013-06-07 17:25:00,
2013-06-07 13:30:00,69.0,55.5,29.84,NNW,330,1.0,10.0,62,0.00,,---,0.00,VWS V14.01,2013-06-07 17:30:00,
2013-06-07 13:35:00,69.4,55.4,29.84,ENE,68,3.0,4.0,61,0.00,,---,0.00,VWS V14.01,2013-06-07 17:35:00,
2013-06-07 13:40:00,69.5,55.0,29.84,NNW,330,5.0,6.0,60,0.00,,---,0.00,VWS V14.01,2013-06-07 17:40:00,
2013-06-07 13:45:00,69.6,57.3,29.84,North,352,4.0,8.0,65,0.00,,---,0.00,VWS V14.01,2013-06-07 17:45:00,
2013-06-07 13:50:00,69.8,55.3,29.84,North,4,7.0,8.0,60,0.00,,---,0.00,VWS V14.01,2013-06-07 17:50:00,
2013-06-07 13:55:00,69.1,55.1,29.84,NE,40,1.0,9.0,61,0.00,,---,0.00,VWS V14.01,2013-06-07 17:55:00,
2013-06-07 14:00:00,69.6,55.6,29.84,NNW,335,5.0,8.0,61,0.00,,---,0.00,VWS V14.01,2013-06-07 18:00:00,
2013-06-07 14:06:00,69.2,55.2,29.84,NW,314,4.0,8.0,61,0.00,,---,0.00,VWS V14.01,2013-06-07 18:06:00,
2013-06-07 14:11:00,69.1,56.4,29.83,NW,311,4.0,8.0,64,0.00,,---,0.00,VWS V14.01,2013-06-07 18:11:00,
2013-06-07 14:16:00,69.7,54.3,29.83,NW,316,0.0,10.0,58,0.00,,---,0.00,VWS V14.01,2013-06-07 18:16:00,
2013-06-07 14:21:00,70.0,55.5,29.83,North,10,5.0,10.0,60,0.00,,---,0.00,VWS V14.01,2013-06-07 18:21:00,
2013-06-07 14:26:00,70.1,57.4,29.83,North,11,4.0,10.0,64,0.00,,---,0.00,VWS V14.01,2013-06-07 18:26:00,
2013-06-07 14:30:00,70.3,55.8,29.83,NNE,13,3.0,10.0,60,0.00,,---,0.00,VWS V14.01,2013-06-07 18:30:00,
2013-06-07 14:31:00,70.2,55.2,29.83,North,359,4.0,5.0,59,0.00,,---,0.00,VWS V14.01,2013-06-07 18:31:00,
2013-06-07 14:36:00,70.4,54.9,29.83,WNW,294,2.0,6.0,58,0.00,,---,0.00,VWS V14.01,2013-06-07 18:36:00,
2013-06-07 14:41:00,69.9,55.8,29.83,NNW,330,4.0,13.0,61,0.00,,---,0.00,VWS V14.01,2013-06-07 18:41:00,
2013-06-07 14:47:00,69.2,54.7,29.83,NNE,15,3.0,13.0,60,0.00,,---,0.00,VWS V14.01,2013-06-07 18:47:00,
2013-06-07 14:52:00,69.1,56.4,29.83,NNE,32,8.0,13.0,64,0.00,,---,0.00,VWS V14.01,2013-06-07 18:52:00,
2013-06-07 14:57:00,69.0,55.5,29.83,North,359,3.0,13.0,62,0.00,,---,0.00,VWS V14.01,2013-06-07 18:57:00,
2013-06-07 15:00:00,69.2,55.2,29.83,North,354,3.0,13.0,61,0.00,,---,0.00,VWS V14.01,2013-06-07 19:00:00,
2013-06-07 15:02:00,69.6,56.9,29.83,North,352,5.0,6.0,64,0.00,,---,0.00,VWS V14.01,2013-06-07 19:02:00,
2013-06-07 15:07:00,69.5,55.5,29.83,NW,318,2.0,9.0,61,0.00,,---,0.00,VWS V14.01,2013-06-07 19:07:00,
2013-06-07 15:12:00,69.5,54.6,29.83,East,84,3.0,9.0,59,0.00,,---,0.00,VWS V14.01,2013-06-07 19:12:00,
2013-06-07 15:17:00,69.3,53.4,29.83,East,88,2.0,9.0,57,0.00,,---,0.00,VWS V14.01,2013-06-07 19:17:00,
2013-06-07 15:22:00,70.2,55.2,29.83,NNE,23,3.0,9.0,59,0.00,,---,0.00,VWS V14.01,2013-06-07 19:22:00,
2013-06-07 15:27:00,69.7,54.3,29.83,NNW,330,6.0,9.0,58,0.00,,---,0.00,VWS V14.01,2013-06-07 19:27:00,
2013-06-07 15:30:00,69.6,54.2,29.83,South,188,2.0,9.0,58,0.00,,---,0.00,VWS V14.01,2013-06-07 19:30:00,
2013-06-07 15:32:00,69.9,55.4,29.83,WNW,302,0.0,3.0,60,0.00,,---,0.00,VWS V14.01,2013-06-07 19:32:00,
2013-06-07 15:37:00,69.9,54.0,29.83,North,354,3.0,12.0,57,0.00,,---,0.00,VWS V14.01,2013-06-07 19:37:00,
2013-06-07 15:42:00,69.0,54.1,29.83,NNE,12,4.0,12.0,59,0.00,,---,0.00,VWS V14.01,2013-06-07 19:42:00,
2013-06-07 15:48:00,69.6,56.9,29.83,NE,47,2.0,12.0,64,0.00,,---,0.00,VWS V14.01,2013-06-07 19:48:00,
2013-06-07 15:53:00,69.9,55.4,29.83,North,5,5.0,12.0,60,0.00,,---,0.00,VWS V14.01,2013-06-07 19:53:00,
2013-06-07 15:58:00,69.8,54.8,29.83,East,80,0.0,12.0,59,0.00,,---,0.00,VWS V14.01,2013-06-07 19:58:00,
2013-06-07 16:00:00,69.7,53.3,29.83,ENE,62,2.0,12.0,56,0.00,,---,0.00,VWS V14.01,2013-06-07 20:00:00,
2013-06-07 16:03:00,69.8,56.2,29.83,NW,326,2.0,6.0,62,0.00,,---,0.00,VWS V14.01,2013-06-07 20:03:00,
2013-06-07 16:08:00,69.9,55.8,29.83,NE,49,2.0,8.0,61,0.00,,---,0.00,VWS V14.01,2013-06-07 20:08:00,
2013-06-07 16:13:00,69.9,54.5,29.83,NNW,333,8.0,8.0,58,0.00,,---,0.00,VWS V14.01,2013-06-07 20:13:00,
2013-06-07 16:18:00,69.7,55.7,29.83,NW,322,3.0,12.0,61,0.00,,---,0.00,VWS V14.01,2013-06-07 20:18:00,
2013-06-07 16:24:00,70.1,55.1,29.83,NW,314,4.0,12.0,59,0.00,,---,0.00,VWS V14.01,2013-06-07 20:24:00,
2013-06-07 16:29:00,70.8,55.3,29.82,ENE,59,2.0,12.0,58,0.00,,---,0.00,VWS V14.01,2013-06-07 20:29:00,
2013-06-07 16:30:00,70.7,55.2,29.82,NE,44,2.0,12.0,58,0.00,,---,0.00,VWS V14.01,2013-06-07 20:30:00,
2013-06-07 16:34:00,70.0,55.0,29.82,NNE,14,0.0,6.0,59,0.00,,---,0.00,VWS V14.01,2013-06-07 20:34:00,
2013-06-07 16:39:00,70.7,54.7,29.82,NNE,16,3.0,8.0,57,0.00,,---,0.00,VWS V14.01,2013-06-07 20:39:00,
2013-06-07 16:44:00,70.5,55.0,29.82,NNW,343,1.0,10.0,58,0.00,,---,0.00,VWS V14.01,2013-06-07 20:44:00,
2013-06-07 16:49:00,69.7,54.3,29.82,NNW,337,6.0,10.0,58,0.00,,---,0.00,VWS V14.01,2013-06-07 20:49:00,
2013-06-07 16:55:00,70.3,55.8,29.82,NNE,20,2.0,10.0,60,0.00,,---,0.00,VWS V14.01,2013-06-07 20:55:00,
2013-06-07 17:00:00,70.8,56.2,29.82,NNW,335,5.0,10.0,60,0.00,,---,0.00,VWS V14.01,2013-06-07 21:00:00,
2013-06-07 17:05:00,70.9,54.9,29.82,WNW,300,0.0,6.0,57,0.00,,---,0.00,VWS V14.01,2013-06-07 21:05:00,
2013-06-07 17:10:00,70.9,54.4,29.82,NNW,330,4.0,8.0,56,0.00,,---,0.00,VWS V14.01,2013-06-07 21:10:00,
2013-06-07 17:15:00,70.5,55.0,29.82,NW,322,3.0,8.0,58,0.00,,---,0.00,VWS V14.01,2013-06-07 21:15:00,
2013-06-07 17:20:00,71.1,55.1,29.82,NNW,327,4.0,9.0,57,0.00,,---,0.00,VWS V14.01,2013-06-07 21:20:00,
2013-06-07 17:25:00,71.6,54.6,29.82,NNW,348,8.0,10.0,55,0.00,,---,0.00,VWS V14.01,2013-06-07 21:25:00,
2013-06-07 17:30:00,71.2,53.7,29.82,NW,319,4.0,11.0,54,0.00,,---,0.00,VWS V14.01,2013-06-07 21:30:00,
2013-06-07 17:35:00,71.0,55.0,29.82,NNW,340,4.0,10.0,57,0.00,,---,0.00,VWS V14.01,2013-06-07 21:35:00,
2013-06-07 17:40:00,71.1,54.6,29.83,ENE,67,6.0,10.0,56,0.00,,---,0.00,VWS V14.01,2013-06-07 21:40:00,
2013-06-07 17:45:00,71.3,55.3,29.83,NNE,30,6.0,10.0,57,0.00,,---,0.00,VWS V14.01,2013-06-07 21:45:00,
2013-06-07 17:51:00,71.0,54.5,29.83,NW,320,5.0,10.0,56,0.00,,---,0.00,VWS V14.01,2013-06-07 21:51:00,
2013-06-07 17:56:00,70.6,54.6,29.83,NNE,27,4.0,10.0,57,0.00,,---,0.00,VWS V14.01,2013-06-07 21:56:00,
2013-06-07 18:00:00,70.5,54.5,29.83,NW,316,3.0,10.0,57,0.00,,---,0.00,VWS V14.01,2013-06-07 22:00:00,
2013-06-07 18:01:00,70.6,55.1,29.83,NE,53,5.0,7.0,58,0.00,,---,0.00,VWS V14.01,2013-06-07 22:01:00,
2013-06-07 18:06:00,70.6,54.2,29.83,North,352,2.0,7.0,56,0.00,,---,0.00,VWS V14.01,2013-06-07 22:06:00,
2013-06-07 18:11:00,71.0,55.0,29.83,NNW,335,2.0,9.0,57,0.00,,---,0.00,VWS V14.01,2013-06-07 22:11:00,
2013-06-07 18:17:00,71.2,55.2,29.83,North,356,2.0,9.0,57,0.00,,---,0.00,VWS V14.01,2013-06-07 22:17:00,
2013-06-07 18:22:00,70.5,54.1,29.83,NNW,338,3.0,9.0,56,0.00,,---,0.00,VWS V14.01,2013-06-07 22:22:00,
2013-06-07 18:27:00,70.2,55.2,29.83,NW,319,5.0,9.0,59,0.00,,---,0.00,VWS V14.01,2013-06-07 22:27:00,
2013-06-07 18:30:00,69.8,53.9,29.83,NNW,335,4.0,9.0,57,0.00,,---,0.00,VWS V14.01,2013-06-07 22:30:00,
2013-06-07 18:32:00,69.4,53.0,29.83,NNW,331,6.0,9.0,56,0.00,,---,0.00,VWS V14.01,2013-06-07 22:32:00,
2013-06-07 18:37:00,68.5,53.2,29.83,NNW,333,5.0,9.0,58,0.00,,---,0.00,VWS V14.01,2013-06-07 22:37:00,
2013-06-07 18:42:00,68.2,53.8,29.83,NW,316,2.0,9.0,60,0.00,,---,0.00,VWS V14.01,2013-06-07 22:42:00,
2013-06-07 18:47:00,68.7,53.8,29.83,ENE,68,6.0,9.0,59,0.00,,---,0.00,VWS V14.01,2013-06-07 22:47:00,
2013-06-07 18:52:00,68.3,53.0,29.83,North,1,4.0,9.0,58,0.00,,---,0.00,VWS V14.01,2013-06-07 22:52:00,
2013-06-07 18:57:00,67.9,53.5,29.83,NNW,333,3.0,9.0,60,0.00,,---,0.00,VWS V14.01,2013-06-07 22:57:00,
2013-06-07 19:00:00,67.7,54.2,29.83,NNW,329,3.0,9.0,62,0.00,,---,0.00,VWS V14.01,2013-06-07 23:00:00,
2013-06-07 19:03:00,67.4,53.9,29.83,NNW,337,5.0,6.0,62,0.00,,---,0.00,VWS V14.01,2013-06-07 23:03:00,
2013-06-07 19:08:00,67.3,53.8,29.83,NW,319,5.0,6.0,62,0.00,,---,0.00,VWS V14.01,2013-06-07 23:08:00,
2013-06-07 19:13:00,67.2,54.2,29.83,East,88,1.0,6.0,63,0.00,,---,0.00,VWS V14.01,2013-06-07 23:13:00,
2013-06-07 19:18:00,67.2,53.8,29.83,NNW,333,3.0,8.0,62,0.00,,---,0.00,VWS V14.01,2013-06-07 23:18:00,
2013-06-07 19:23:00,66.9,54.3,29.84,North,6,0.0,8.0,64,0.00,,---,0.00,VWS V14.01,2013-06-07 23:23:00,
2013-06-07 19:28:00,66.7,53.7,29.84,East,94,2.0,8.0,63,0.00,,---,0.00,VWS V14.01,2013-06-07 23:28:00,
2013-06-07 19:30:00,66.7,53.7,29.84,SSE,150,0.0,8.0,63,0.00,,---,0.00,VWS V14.01,2013-06-07 23:30:00,
2013-06-07 19:33:00,66.6,53.2,29.84,ENE,72,1.0,4.0,62,0.00,,---,0.00,VWS V14.01,2013-06-07 23:33:00,
2013-06-07 19:38:00,66.4,53.4,29.84,NNW,330,5.0,5.0,63,0.00,,---,0.00,VWS V14.01,2013-06-07 23:38:00,
2013-06-07 19:43:00,66.1,53.2,29.84,NNE,27,0.0,5.0,63,0.00,,---,0.00,VWS V14.01,2013-06-07 23:43:00,
2013-06-07 19:48:00,65.9,53.4,29.84,NNW,333,1.0,5.0,64,0.00,,---,0.00,VWS V14.01,2013-06-07 23:48:00,
2013-06-07 19:53:00,65.7,53.2,29.85,NE,44,2.0,6.0,64,0.00,,---,0.00,VWS V14.01,2013-06-07 23:53:00,
2013-06-07 19:58:00,65.4,53.3,29.85,NNW,344,4.0,6.0,65,0.00,,---,0.00,VWS V14.01,2013-06-07 23:58:00,
2013-06-07 20:00:00,65.4,53.3,29.85,NW,315,0.0,6.0,65,0.00,,---,0.00,VWS V14.01,2013-06-08 00:00:00,
2013-06-07 20:03:00,65.3,53.2,29.85,NNW,333,2.0,5.0,65,0.00,,---,0.00,VWS V14.01,2013-06-08 00:03:00,
2013-06-07 20:09:00,65.2,53.6,29.85,ENE,68,3.0,5.0,66,0.00,,---,0.00,VWS V14.01,2013-06-08 00:09:00,
2013-06-07 20:14:00,65.0,52.5,29.86,North,356,3.0,8.0,64,0.00,,---,0.00,VWS V14.01,2013-06-08 00:14:00,
2013-06-07 20:19:00,64.8,52.8,29.86,NNE,12,2.0,8.0,65,0.00,,---,0.00,VWS V14.01,2013-06-08 00:19:00,
2013-06-07 20:24:00,64.6,52.6,29.86,NNW,338,4.0,8.0,65,0.00,,---,0.00,VWS V14.01,2013-06-08 00:24:00,
2013-06-07 20:29:00,64.5,52.5,29.86,NNW,335,1.0,8.0,65,0.00,,---,0.00,VWS V14.01,2013-06-08 00:29:00,
2013-06-07 20:30:00,64.4,52.8,29.86,NNW,333,1.0,8.0,66,0.00,,---,0.00,VWS V14.01,2013-06-08 00:30:00,
2013-06-07 20:34:00,64.2,52.6,29.86,SW,235,0.0,2.0,66,0.00,,---,0.00,VWS V14.01,2013-06-08 00:34:00,
2013-06-07 20:39:00,63.9,52.7,29.87,NNW,347,2.0,3.0,67,0.00,,---,0.00,VWS V14.01,2013-06-08 00:39:00,
2013-06-07 20:44:00,63.8,52.7,29.87,NNW,348,0.0,3.0,67,0.00,,---,0.00,VWS V14.01,2013-06-08 00:44:00,
2013-06-07 20:49:00,63.4,52.3,29.87,North,7,2.0,4.0,67,0.00,,---,0.00,VWS V14.01,2013-06-08 00:49:00,
2013-06-07 20:54:00,63.2,52.1,29.87,NNE,33,3.0,4.0,67,0.00,,---,0.00,VWS V14.01,2013-06-08 00:54:00,
2013-06-07 20:59:00,62.9,52.2,29.87,NNW,337,0.0,4.0,68,0.00,,---,0.00,VWS V14.01,2013-06-08 00:59:00,
2013-06-07 21:00:00,62.9,52.2,29.87,NNW,338,0.0,4.0,68,0.00,,---,0.00,VWS V14.01,2013-06-08 01:00:00,
2013-06-07 21:04:00,62.5,52.2,29.87,NNW,348,0.0,0.0,69,0.00,,---,0.00,VWS V14.01,2013-06-08 01:04:00,
2013-06-07 21:09:00,62.0,52.1,29.87,NNW,348,0.0,0.0,70,0.00,,---,0.00,VWS V14.01,2013-06-08 01:09:00,
2013-06-07 21:14:00,61.4,51.9,29.87,NNW,347,0.0,0.0,71,0.00,,---,0.00,VWS V14.01,2013-06-08 01:14:00,
2013-06-07 21:20:00,60.8,51.7,29.87,NNW,347,0.0,0.0,72,0.00,,---,0.00,VWS V14.01,2013-06-08 01:20:00,
2013-06-07 21:25:00,60.3,51.6,29.87,North,349,0.0,1.0,73,0.00,,---,0.00,VWS V14.01,2013-06-08 01:25:00,
2013-06-07 21:30:00,59.7,51.4,29.87,NNW,347,0.0,1.0,74,0.00,,---,0.00,VWS V14.01,2013-06-08 01:30:00,
2013-06-07 21:35:00,59.2,51.7,29.87,NE,37,0.0,1.0,76,0.00,,---,0.00,VWS V14.01,2013-06-08 01:35:00,
2013-06-07 21:40:00,59.0,51.5,29.87,ENE,68,0.0,1.0,76,0.00,,---,0.00,VWS V14.01,2013-06-08 01:40:00,
2013-06-07 21:45:00,58.8,51.6,29.87,ENE,70,0.0,1.0,77,0.00,,---,0.00,VWS V14.01,2013-06-08 01:45:00,
2013-06-07 21:50:00,58.5,51.3,29.87,ENE,70,0.0,1.0,77,0.00,,---,0.00,VWS V14.01,2013-06-08 01:50:00,
2013-06-07 21:55:00,58.0,51.2,29.87,ENE,70,0.0,1.0,78,0.00,,---,0.00,VWS V14.01,2013-06-08 01:55:00,
2013-06-07 22:00:00,57.8,51.3,29.87,ENE,75,0.0,0.0,79,0.00,,---,0.00,VWS V14.01,2013-06-08 02:00:00,
2013-06-07 22:05:00,57.5,51.4,29.87,ENE,75,0.0,0.0,80,0.00,,---,0.00,VWS V14.01,2013-06-08 02:05:00,
2013-06-07 22:10:00,57.1,51.3,29.87,ENE,75,0.0,0.0,81,0.00,,---,0.00,VWS V14.01,2013-06-08 02:10:00,
2013-06-07 22:16:00,56.7,51.3,29.88,ENE,75,0.0,0.0,82,0.00,,---,0.00,VWS V14.01,2013-06-08 02:16:00,
2013-06-07 22:21:00,56.5,51.4,29.88,ENE,75,0.0,0.0,83,0.00,,---,0.00,VWS V14.01,2013-06-08 02:21:00,
2013-06-07 22:26:00,56.1,51.3,29.88,ENE,75,0.0,0.0,84,0.00,,---,0.00,VWS V14.01,2013-06-08 02:26:00,
2013-06-07 22:30:00,55.7,51.0,29.88,ENE,75,0.0,0.0,84,0.00,,---,0.00,VWS V14.01,2013-06-08 02:30:00,
2013-06-07 22:31:00,55.5,50.8,29.88,ENE,75,0.0,0.0,84,0.00,,---,0.00,VWS V14.01,2013-06-08 02:31:00,
2013-06-07 22:36:00,54.8,50.4,29.88,ENE,75,0.0,0.0,85,0.00,,---,0.00,VWS V14.01,2013-06-08 02:36:00,
2013-06-07 22:41:00,54.1,49.7,29.88,ENE,75,0.0,0.0,85,0.00,,---,0.00,VWS V14.01,2013-06-08 02:41:00,
2013-06-07 22:47:00,53.6,49.8,29.88,ENE,75,0.0,0.0,87,0.00,,---,0.00,VWS V14.01,2013-06-08 02:47:00,
2013-06-07 22:52:00,53.1,50.0,29.88,ENE,75,0.0,0.0,89,0.00,,---,0.00,VWS V14.01,2013-06-08 02:52:00,
2013-06-07 22:57:00,52.8,50.0,29.88,ENE,75,0.0,0.0,90,0.00,,---,0.00,VWS V14.01,2013-06-08 02:57:00,
2013-06-07 23:00:00,52.9,50.3,29.88,ENE,75,0.0,0.0,91,0.00,,---,0.00,VWS V14.01,2013-06-08 03:00:00,
2013-06-07 23:02:00,52.9,50.3,29.88,ENE,75,0.0,0.0,91,0.00,,---,0.00,VWS V14.01,2013-06-08 03:02:00,
2013-06-07 23:07:00,52.8,50.2,29.89,ENE,75,0.0,0.0,91,0.00,,---,0.00,VWS V14.01,2013-06-08 03:07:00,
2013-06-07 23:12:00,53.2,51.2,29.89,ENE,75,0.0,1.0,93,0.00,,---,0.00,VWS V14.01,2013-06-08 03:12:00,
2013-06-07 23:17:00,53.4,51.1,29.89,ENE,75,0.0,1.0,92,0.00,,---,0.00,VWS V14.01,2013-06-08 03:17:00,
2013-06-07 23:22:00,53.4,50.5,29.89,ENE,75,0.0,1.0,90,0.00,,---,0.00,VWS V14.01,2013-06-08 03:22:00,
2013-06-07 23:27:00,52.9,50.0,29.89,ENE,75,0.0,1.0,90,0.00,,---,0.00,VWS V14.01,2013-06-08 03:27:00,
2013-06-07 23:30:00,52.6,49.8,29.89,ENE,75,0.0,1.0,90,0.00,,---,0.00,VWS V14.01,2013-06-08 03:30:00,
2013-06-07 23:32:00,52.5,49.7,29.89,ENE,75,0.0,0.0,90,0.00,,---,0.00,VWS V14.01,2013-06-08 03:32:00,
2013-06-07 23:37:00,52.2,50.0,29.89,ENE,75,0.0,0.0,92,0.00,,---,0.00,VWS V14.01,2013-06-08 03:37:00,
2013-06-07 23:42:00,51.8,49.5,29.89,ENE,75,0.0,0.0,92,0.00,,---,0.00,VWS V14.01,2013-06-08 03:42:00,
2013-06-07 23:48:00,51.6,49.7,29.89,ENE,75,0.0,0.0,93,0.00,,---,0.00,VWS V14.01,2013-06-08 03:48:00,
2013-06-07 23:53:00,51.6,49.7,29.89,ENE,75,0.0,0.0,93,0.00,,---,0.00,VWS V14.01,2013-06-08 03:53:00,
2013-06-07 23:58:00,51.4,49.5,29.89,ENE,75,0.0,0.0,93,0.00,,---,0.00,VWS V14.01,2013-06-08 03:58:00,